• în România
  • Lista ţărilor
  • Pe 7 zile
  • Temperatura apei
  • Hartă satelitară
  • Meteo pe hartă
  • Widget-uri
  • user-avatar
    Intrare

    Meteo pe oră la Fier

    Astăzi, 23 Iunie, Vineri

    Timp Temperatura Precipitaţii Vânt Presiune Umiditate
    00:00 +22°C° 0 mm 1 m/s 762 mmHg 80%
    01:00 +22°C° 0 mm 1 m/s 762 mmHg 82%
    02:00 +21°C° 0 mm 1 m/s 762 mmHg 82%
    03:00 +21°C° 0 mm 1 m/s 761 mmHg 81%
    04:00 +21°C° 0 mm 1 m/s 761 mmHg 81%
    05:00 +23°C° 0 mm 1 m/s 761 mmHg 71%
    06:00 +26°C° 0 mm 1 m/s 761 mmHg 60%
    07:00 +29°C° 0 mm 1 m/s 762 mmHg 50%
    08:00 +31°C° 0 mm 1 m/s 762 mmHg 44%
    09:00 +32°C° 0 mm 1 m/s 762 mmHg 38%
    10:00 +35°C° 0 mm 2 m/s 762 mmHg 32%
    11:00 +35°C° 0 mm 2 m/s 761 mmHg 31%
    12:00 +36°C° 0 mm 3 m/s 761 mmHg 30%
    13:00 +36°C° 0 mm 4 m/s 761 mmHg 29%
    14:00 +35°C° 0 mm 3 m/s 761 mmHg 30%
    15:00 +35°C° 0 mm 3 m/s 760 mmHg 32%
    16:00 +34°C° 0 mm 3 m/s 760 mmHg 33%
    17:00 +31°C° 0 mm 2 m/s 760 mmHg 43%
    18:00 +28°C° 0 mm 2 m/s 760 mmHg 52%
    19:00 +26°C° 0 mm 1 m/s 760 mmHg 61%
    20:00 +24°C° 0 mm 1 m/s 760 mmHg 64%
    21:00 +23°C° 0 mm 1 m/s 761 mmHg 67%
    22:00 +20°C° 0 mm 0 m/s 761 mmHg 70%
    23:00 +20°C° 0 mm 0 m/s 761 mmHg 71%

    Mâine, 24 Iunie, Sâmbătă

    Timp Temperatura Precipitaţii Vânt Presiune Umiditate
    00:00 +20°C° 0 mm 0 m/s 761 mmHg 71%
    01:00 +19°C° 0 mm 0 m/s 761 mmHg 72%
    02:00 +21°C° 0 mm 1 m/s 761 mmHg 73%
    03:00 +21°C° 0 mm 1 m/s 760 mmHg 74%
    04:00 +21°C° 0 mm 1 m/s 760 mmHg 75%
    05:00 +24°C° 0 mm 1 m/s 760 mmHg 65%
    06:00 +26°C° 0 mm 1 m/s 761 mmHg 55%
    07:00 +29°C° 0 mm 1 m/s 761 mmHg 45%
    08:00 +31°C° 0 mm 1 m/s 761 mmHg 41%
    09:00 +34°C° 0 mm 2 m/s 761 mmHg 36%
    10:00 +35°C° 0 mm 2 m/s 761 mmHg 32%
    11:00 +36°C° 0 mm 3 m/s 760 mmHg 31%
    12:00 +36°C° 0 mm 3 m/s 760 mmHg 30%
    13:00 +37°C° 0 mm 4 m/s 760 mmHg 30%
    14:00 +36°C° 0,1 mm 4 m/s 759 mmHg 32%
    15:00 +36°C° 0,1 mm 4 m/s 759 mmHg 35%
    16:00 +35°C° 0,1 mm 3 m/s 759 mmHg 37%
    17:00 +31°C° 0 mm 3 m/s 759 mmHg 46%
    18:00 +29°C° 0 mm 2 m/s 759 mmHg 55%
    19:00 +27°C° 0 mm 2 m/s 759 mmHg 63%
    20:00 +26°C° 0 mm 1 m/s 759 mmHg 65%
    21:00 +25°C° 0 mm 1 m/s 760 mmHg 66%
    22:00 +24°C° 0 mm 1 m/s 760 mmHg 68%
    23:00 +24°C° 0 mm 1 m/s 760 mmHg 69%

    Poimâine, 25 Iunie, Duminică

    Timp Temperatura Precipitaţii Vânt Presiune Umiditate
    00:00 +24°C° 0 mm 1 m/s 760 mmHg 70%
    01:00 +24°C° 0 mm 1 m/s 760 mmHg 71%
    02:00 +23°C° 0 mm 1 m/s 759 mmHg 73%
    03:00 +23°C° 0 mm 1 m/s 759 mmHg 74%
    04:00 +23°C° 0 mm 1 m/s 759 mmHg 76%
    05:00 +25°C° 0 mm 1 m/s 759 mmHg 67%
    06:00 +28°C° 0 mm 1 m/s 759 mmHg 59%
    07:00 +28°C° 0 mm 0 m/s 759 mmHg 51%
    08:00 +32°C° 0 mm 1 m/s 759 mmHg 46%
    09:00 +34°C° 0 mm 1 m/s 759 mmHg 41%
    10:00 +36°C° 0 mm 1 m/s 759 mmHg 36%
    11:00 +37°C° 0,2 mm 2 m/s 759 mmHg 35%
    12:00 +37°C° 0,2 mm 3 m/s 758 mmHg 35%
    13:00 +37°C° 0,2 mm 3 m/s 758 mmHg 34%
    14:00 +36°C° 0,1 mm 3 m/s 758 mmHg 35%
    15:00 +36°C° 0,1 mm 2 m/s 758 mmHg 36%
    16:00 +35°C° 0,1 mm 2 m/s 757 mmHg 38%
    17:00 +32°C° 0 mm 2 m/s 758 mmHg 46%
    18:00 +29°C° 0 mm 1 m/s 758 mmHg 54%
    19:00 +27°C° 0 mm 1 m/s 758 mmHg 62%
    20:00 +26°C° 0 mm 1 m/s 758 mmHg 64%
    21:00 +25°C° 0 mm 1 m/s 758 mmHg 66%
    22:00 +24°C° 0 mm 1 m/s 759 mmHg 67%
    23:00 +23°C° 0 mm 1 m/s 758 mmHg 68%

    26 Iunie, Luni

    Timp Temperatura Precipitaţii Vânt Presiune Umiditate
    00:00 +23°C° 0 mm 1 m/s 758 mmHg 70%
    01:00 +20°C° 0 mm 0 m/s 758 mmHg 71%
    02:00 +22°C° 0 mm 1 m/s 758 mmHg 71%
    03:00 +22°C° 0 mm 1 m/s 758 mmHg 71%
    04:00 +22°C° 0 mm 1 m/s 758 mmHg 71%
    05:00 +25°C° 0 mm 1 m/s 758 mmHg 61%
    06:00 +27°C° 0 mm 1 m/s 758 mmHg 52%
    07:00 +28°C° 0 mm 0 m/s 758 mmHg 43%
    08:00 +32°C° 0 mm 1 m/s 758 mmHg 38%
    09:00 +33°C° 0 mm 1 m/s 758 mmHg 34%
    10:00 +36°C° 0 mm 2 m/s 758 mmHg 30%
    11:00 +36°C° 0 mm 2 m/s 758 mmHg 30%
    12:00 +37°C° 0 mm 3 m/s 758 mmHg 30%
    13:00 +37°C° 0 mm 3 m/s 758 mmHg 29%
    14:00 +36°C° 0 mm 3 m/s 757 mmHg 31%
    15:00 +36°C° 0 mm 3 m/s 757 mmHg 33%
    16:00 +35°C° 0 mm 3 m/s 757 mmHg 35%
    17:00 +32°C° 0 mm 2 m/s 758 mmHg 45%
    18:00 +29°C° 0 mm 2 m/s 758 mmHg 54%
    19:00 +27°C° 0 mm 1 m/s 758 mmHg 63%
    20:00 +26°C° 0 mm 1 m/s 758 mmHg 65%
    21:00 +25°C° 0 mm 1 m/s 759 mmHg 67%
    22:00 +22°C° 0 mm 0 m/s 759 mmHg 69%
    23:00 +21°C° 0 mm 0 m/s 759 mmHg 70%

    27 Iunie, Marţi

    Timp Temperatura Precipitaţii Vânt Presiune Umiditate
    00:00 +21°C° 0 mm 0 m/s 759 mmHg 71%
    01:00 +21°C° 0 mm 0 m/s 759 mmHg 73%
    02:00 +20°C° 0 mm 0 m/s 759 mmHg 73%
    03:00 +20°C° 0 mm 0 m/s 758 mmHg 74%
    04:00 +20°C° 0 mm 0 m/s 758 mmHg 74%
    05:00 +23°C° 0 mm 0 m/s 759 mmHg 64%
    06:00 +26°C° 0 mm 0 m/s 759 mmHg 54%
    07:00 +29°C° 0 mm 0 m/s 759 mmHg 43%
    08:00 +32°C° 0 mm 1 m/s 759 mmHg 39%
    09:00 +34°C° 0 mm 1 m/s 759 mmHg 35%
    10:00 +36°C° 0 mm 2 m/s 759 mmHg 30%
    11:00 +37°C° 0 mm 2 m/s 759 mmHg 30%
    12:00 +37°C° 0 mm 3 m/s 758 mmHg 29%
    13:00 +38°C° 0 mm 3 m/s 758 mmHg 28%
    14:00 +37°C° 0 mm 3 m/s 758 mmHg 30%
    15:00 +36°C° 0 mm 3 m/s 758 mmHg 32%
    16:00 +36°C° 0 mm 3 m/s 758 mmHg 33%
    17:00 +33°C° 0 mm 3 m/s 758 mmHg 42%
    18:00 +30°C° 0 mm 2 m/s 758 mmHg 52%
    19:00 +27°C° 0 mm 2 m/s 758 mmHg 61%
    20:00 +26°C° 0 mm 2 m/s 758 mmHg 62%
    21:00 +25°C° 0 mm 2 m/s 759 mmHg 64%
    22:00 +24°C° 0 mm 2 m/s 759 mmHg 66%
    23:00 +24°C° 0 mm 2 m/s 759 mmHg 66%

    28 Iunie, Miercuri

    Timp Temperatura Precipitaţii Vânt Presiune Umiditate
    00:00 +24°C° 0 mm 2 m/s 758 mmHg 67%
    01:00 +24°C° 0 mm 2 m/s 758 mmHg 68%
    02:00 +23°C° 0 mm 2 m/s 758 mmHg 69%
    03:00 +23°C° 0 mm 2 m/s 758 mmHg 70%
    04:00 +23°C° 0 mm 2 m/s 758 mmHg 72%
    05:00 +26°C° 0 mm 2 m/s 758 mmHg 62%
    06:00 +29°C° 0 mm 2 m/s 758 mmHg 52%
    07:00 +31°C° 0 mm 2 m/s 758 mmHg 41%
    08:00 +34°C° 0 mm 2 m/s 758 mmHg 38%
    09:00 +36°C° 0 mm 3 m/s 758 mmHg 34%
    10:00 +37°C° 0 mm 3 m/s 758 mmHg 31%
    11:00 +38°C° 0 mm 4 m/s 758 mmHg 30%
    12:00 +38°C° 0 mm 4 m/s 757 mmHg 29%
    13:00 +39°C° 0 mm 5 m/s 757 mmHg 28%
    14:00 +39°C° 0 mm 5 m/s 757 mmHg 29%
    15:00 +37°C° 0 mm 5 m/s 756 mmHg 30%
    16:00 +37°C° 0 mm 4 m/s 756 mmHg 32%
    17:00 +34°C° 0 mm 4 m/s 756 mmHg 41%
    18:00 +30°C° 0 mm 4 m/s 756 mmHg 50%
    19:00 +28°C° 0 mm 3 m/s 756 mmHg 59%
    20:00 +27°C° 0 mm 3 m/s 757 mmHg 59%
    21:00 +26°C° 0 mm 3 m/s 757 mmHg 59%
    22:00 +26°C° 0 mm 3 m/s 757 mmHg 59%
    23:00 +25°C° 0 mm 3 m/s 757 mmHg 59%
    Arată mai mult